Location: ?????
(55.8833°N, 37.6500°E)
Time: 18:36:22
(UTC+00:00)

SL-16 R/B - Pass Details

Date: 27 February 2020
Orbit: 985 x 1007 km, 99.5° (Epoch: 28 March)

Event Time Altitude Azimuth Distance (km) Brightness Sun altitude
Exits shadow 21:17:23 25° 22° (NNE) 1,926 4.4 -42.2°
Drops below altitude 10° 21:20:46 10° 354° (N) 2,798 5.5 -42.2°
Sets 21:23:34 0° 344° (NNW) 3,752 6.4 -42.3°
